Location: Hermaringen
(48.5952°N, 10.2585°E)
Time: 13:20:43
(UTC+00:00)

A-11 Canister half - Pass Details

Date: 19 February 2026
Orbit: 1513 x 1687 km, 47.2° (Epoch: 11 March)

Event Time Altitude Azimuth Distance (km) Brightness Sun altitude
Rises 00:35:51 0° 282° (WNW) 4,909 - -50.5°
Reaches altitude 10° 00:39:03 10° 281° (W) 3,903 - -50.3°
Maximum altitude 00:48:55 70° 201° (SSW) 1,698 - -49.5°
Drops below altitude 10° 00:58:25 10° 120° (ESE) 3,759 - -48.7°
Exits shadow 01:00:21 - 119° (ESE) 4,372 11.4 -48.5°
Sets 01:01:26 0° 118° (ESE) 4,721 11.6 -48.4°
